UAL238 KJFK-KPWM

Flight info

Callsign UAL238
Flight time 0h 44m
Altitude 31000
Route GREKI JUDDS CAM CDOGG4
Aircraft E75L/M-SDE3GILORVW/S

Departure

Time 2026-05-06 21:19
Airport John F. Kennedy International Airport (KJFK)

Arrival

Time 2026-05-06 22:04
Airport Portland International Jetport (KPWM)
Time Latitude Longitude Altitude Speed Heading
2026-05-06 20:57 40.64084 -73.78844 21 ft 0 kts 288°
2026-05-06 21:06 40.64079 -73.78824 22 ft 3 kts 288°
2026-05-06 21:07 40.64077 -73.78800 21 ft 3 kts 225°
2026-05-06 21:07 40.64083 -73.78794 22 ft 0 kts 196°
2026-05-06 21:09 40.64079 -73.78793 21 ft 5 kts 182°
2026-05-06 21:09 40.64000 -73.78801 21 ft 17 kts 185°
2026-05-06 21:09 40.63918 -73.78821 21 ft 10 kts 191°
2026-05-06 21:09 40.63821 -73.78896 21 ft 14 kts 216°
2026-05-06 21:10 40.63738 -73.78946 22 ft 7 kts 155°
2026-05-06 21:10 40.63673 -73.78824 23 ft 21 kts 122°
2026-05-06 21:10 40.63591 -73.78646 23 ft 24 kts 120°
2026-05-06 21:10 40.63495 -73.78427 22 ft 24 kts 120°
2026-05-06 21:11 40.63441 -73.78316 23 ft 20 kts 121°
2026-05-06 21:11 40.63355 -73.78121 22 ft 17 kts 118°
2026-05-06 21:11 40.63335 -73.78040 24 ft 11 kts 101°
2026-05-06 21:11 40.63333 -73.77937 22 ft 18 kts 77°
2026-05-06 21:12 40.63425 -73.77767 22 ft 40 kts 31°
2026-05-06 21:12 40.63637 -73.77605 21 ft 32 kts 30°
2026-05-06 21:12 40.63810 -73.77468 20 ft 26 kts 28°
2026-05-06 21:12 40.63947 -73.77360 21 ft 16 kts 30°
2026-05-06 21:13 40.63964 -73.77347 21 ft 0 kts 28°
2026-05-06 21:13 40.63990 -73.77329 21 ft 11 kts 27°
2026-05-06 21:14 40.64063 -73.77278 21 ft 11 kts 31°
2026-05-06 21:14 40.64178 -73.77182 22 ft 24 kts 30°
2026-05-06 21:14 40.64326 -73.77066 21 ft 25 kts 28°
2026-05-06 21:14 40.64474 -73.76990 20 ft 21 kts
2026-05-06 21:15 40.64595 -73.76921 21 ft 17 kts 31°
2026-05-06 21:15 40.64714 -73.76830 21 ft 26 kts 33°
2026-05-06 21:15 40.64864 -73.76706 22 ft 23 kts 31°
2026-05-06 21:15 40.65050 -73.76563 22 ft 15 kts 32°
2026-05-06 21:16 40.65092 -73.76461 25 ft 0 kts 114°
2026-05-06 21:18 40.65068 -73.76404 23 ft 12 kts 122°
2026-05-06 21:19 40.65007 -73.76368 23 ft 7 kts 202°
2026-05-06 21:19 40.64933 -73.76423 23 ft 51 kts 209°
2026-05-06 21:19 40.64341 -73.76880 44 ft 139 kts 211°
2026-05-06 21:19 40.63378 -73.77683 643 ft 185 kts 211°
2026-05-06 21:20 40.62062 -73.78575 1297 ft 235 kts 191°
2026-05-06 21:20 40.60386 -73.77989 2533 ft 283 kts 128°
2026-05-06 21:20 40.60155 -73.75318 3680 ft 331 kts 67°
2026-05-06 21:20 40.61373 -73.72669 4674 ft 363 kts 43°
2026-05-06 21:21 40.63647 -73.71283 5934 ft 345 kts 355°
2026-05-06 21:21 40.65946 -73.71281 8721 ft 323 kts 353°
2026-05-06 21:21 40.68118 -73.71220 10891 ft 301 kts 352°
2026-05-06 21:21 40.70192 -73.71225 12451 ft 304 kts 348°
2026-05-06 21:22 40.72374 -73.71275 13421 ft 324 kts 351°
2026-05-06 21:22 40.74689 -73.71225 14379 ft 341 kts 355°
2026-05-06 21:22 40.77094 -73.70792 15349 ft 359 kts
2026-05-06 21:22 40.79560 -73.69883 16426 ft 373 kts 13°
2026-05-06 21:23 40.81985 -73.68550 17599 ft 384 kts 20°
2026-05-06 21:23 40.84336 -73.66797 18691 ft 392 kts 28°
2026-05-06 21:23 40.86550 -73.64644 19713 ft 398 kts 34°
2026-05-06 21:23 40.88621 -73.62183 20732 ft 403 kts 34°
2026-05-06 21:24 40.90828 -73.59849 21411 ft 412 kts 30°
2026-05-06 21:24 40.93152 -73.57549 22150 ft 422 kts 28°
2026-05-06 21:24 40.95535 -73.55203 22948 ft 431 kts 28°
2026-05-06 21:24 40.97947 -73.52804 23697 ft 439 kts 28°
2026-05-06 21:25 41.00402 -73.50342 24388 ft 446 kts 28°
2026-05-06 21:25 41.02885 -73.47850 25062 ft 452 kts 28°
2026-05-06 21:25 41.05416 -73.45308 25746 ft 458 kts 28°
2026-05-06 21:25 41.07977 -73.42738 26406 ft 464 kts 28°
2026-05-06 21:26 41.10577 -73.40129 27074 ft 470 kts 28°
2026-05-06 21:26 41.13198 -73.37500 27707 ft 476 kts 28°
2026-05-06 21:26 41.15831 -73.34860 28329 ft 482 kts 28°
2026-05-06 21:26 41.18517 -73.32171 28995 ft 488 kts 28°
2026-05-06 21:27 41.21243 -73.29448 29548 ft 494 kts 28°
2026-05-06 21:27 41.24019 -73.26695 30095 ft 499 kts 28°
2026-05-06 21:27 41.26827 -73.23915 30482 ft 508 kts 28°
2026-05-06 21:27 41.29704 -73.21074 30657 ft 521 kts 28°
2026-05-06 21:28 41.32673 -73.18160 30751 ft 536 kts 28°
2026-05-06 21:28 41.35682 -73.15230 30791 ft 551 kts 28°
2026-05-06 21:28 41.38818 -73.12197 30838 ft 555 kts 27°
2026-05-06 21:29 41.44961 -73.06147 30834 ft 534 kts 28°
2026-05-06 21:29 41.47846 -73.03213 30840 ft 515 kts 28°
2026-05-06 21:29 41.50679 -73.00310 30829 ft 514 kts 28°
2026-05-06 21:29 41.53629 -72.97739 30798 ft 496 kts 13°
2026-05-06 21:30 41.56834 -72.96472 30798 ft 465 kts 354°
2026-05-06 21:30 41.59938 -72.96645 30809 ft 432 kts 334°
2026-05-06 21:30 41.62684 -72.97967 30839 ft 415 kts 324°
2026-05-06 21:31 41.67840 -73.01361 30829 ft 412 kts 321°
2026-05-06 21:31 41.72875 -73.04880 30827 ft 407 kts 320°
2026-05-06 21:32 41.77868 -73.08413 30830 ft 410 kts 320°
2026-05-06 21:32 41.85447 -73.13797 30804 ft 411 kts 320°
2026-05-06 21:33 41.90757 -73.16910 30789 ft 432 kts 333°
2026-05-06 21:33 41.96685 -73.18629 30788 ft 438 kts 336°
2026-05-06 21:34 42.02700 -73.20122 30792 ft 439 kts 337°
2026-05-06 21:34 42.08890 -73.20872 30784 ft 455 kts 346°
2026-05-06 21:35 42.15281 -73.20884 30773 ft 458 kts 348°
2026-05-06 21:35 42.21665 -73.20788 30769 ft 458 kts 348°
2026-05-06 21:36 42.27984 -73.20758 30762 ft 458 kts 348°
2026-05-06 21:36 42.34352 -73.20705 30900 ft 459 kts 348°
2026-05-06 21:37 42.40761 -73.20647 30972 ft 461 kts 348°
2026-05-06 21:37 42.47194 -73.20667 31006 ft 462 kts 348°
2026-05-06 21:38 42.53617 -73.20712 31036 ft 462 kts 348°
2026-05-06 21:38 42.60047 -73.20771 31074 ft 463 kts 348°
2026-05-06 21:39 42.66506 -73.20849 31051 ft 463 kts 348°
2026-05-06 21:39 42.72917 -73.21139 30832 ft 460 kts 346°
2026-05-06 21:40 42.76118 -73.21386 30673 ft 458 kts 345°
2026-05-06 21:40 42.79279 -73.21649 30562 ft 456 kts 345°
2026-05-06 21:40 42.82419 -73.21947 30398 ft 456 kts 345°
2026-05-06 21:40 42.85582 -73.22273 30230 ft 456 kts 345°
2026-05-06 21:41 42.88757 -73.22588 30070 ft 458 kts 348°
2026-05-06 21:41 42.92001 -73.22039 29878 ft 483 kts
2026-05-06 21:41 42.95069 -73.19982 29686 ft 503 kts 30°
2026-05-06 21:41 42.97592 -73.16603 29543 ft 516 kts 51°
2026-05-06 21:42 42.99272 -73.12304 29377 ft 510 kts 69°
2026-05-06 21:42 43.00368 -73.07761 29213 ft 508 kts 73°
2026-05-06 21:42 43.01360 -73.03136 29038 ft 507 kts 74°
2026-05-06 21:42 43.02335 -72.98440 28835 ft 506 kts 74°
2026-05-06 21:43 43.03281 -72.93839 28604 ft 504 kts 75°
2026-05-06 21:43 43.04234 -72.89225 28420 ft 503 kts 75°
2026-05-06 21:43 43.05188 -72.84636 28139 ft 504 kts 75°
2026-05-06 21:43 43.06194 -72.80040 27601 ft 500 kts 73°
2026-05-06 21:44 43.07267 -72.75545 27074 ft 493 kts 72°
2026-05-06 21:44 43.08356 -72.71138 26550 ft 487 kts 72°
2026-05-06 21:44 43.09437 -72.66843 26101 ft 482 kts 72°
2026-05-06 21:44 43.10532 -72.62549 25596 ft 474 kts 71°
2026-05-06 21:45 43.11648 -72.58242 25071 ft 471 kts 71°
2026-05-06 21:45 43.12755 -72.54038 24594 ft 468 kts 71°
2026-05-06 21:45 43.13867 -72.49866 24124 ft 463 kts 71°
2026-05-06 21:45 43.14962 -72.45810 23664 ft 459 kts 71°
2026-05-06 21:46 43.16076 -72.41739 23191 ft 456 kts 71°
2026-05-06 21:46 43.17192 -72.37702 22653 ft 453 kts 71°
2026-05-06 21:46 43.18308 -72.33665 22114 ft 449 kts 71°
2026-05-06 21:46 43.18332 -72.33577 22102 ft 449 kts 71°
2026-05-06 21:47 43.19270 -72.30179 21657 ft 446 kts 71°
2026-05-06 21:47 43.20344 -72.26174 21051 ft 443 kts 72°
2026-05-06 21:47 43.21324 -72.22206 20305 ft 440 kts 73°
2026-05-06 21:48 43.22266 -72.18240 19594 ft 434 kts 73°
2026-05-06 21:48 43.23179 -72.14315 18878 ft 428 kts 74°
2026-05-06 21:48 43.24057 -72.10476 18188 ft 424 kts 74°
2026-05-06 21:48 43.24928 -72.06623 17409 ft 419 kts 73°
2026-05-06 21:49 43.25768 -72.02826 16622 ft 413 kts 74°
2026-05-06 21:49 43.26594 -71.99069 15863 ft 408 kts 74°
2026-05-06 21:49 43.27406 -71.95359 15126 ft 404 kts 74°
2026-05-06 21:49 43.28205 -71.91686 14403 ft 399 kts 74°
2026-05-06 21:50 43.28987 -71.88045 13682 ft 395 kts 74°
2026-05-06 21:50 43.29750 -71.84443 12914 ft 390 kts 74°
2026-05-06 21:50 43.30496 -71.80905 12140 ft 382 kts 74°
2026-05-06 21:50 43.31218 -71.77479 11518 ft 373 kts 74°
2026-05-06 21:51 43.31941 -71.74065 11239 ft 369 kts 74°
2026-05-06 21:51 43.32662 -71.70680 11091 ft 368 kts 74°
2026-05-06 21:51 43.33379 -71.67322 11016 ft 367 kts 74°
2026-05-06 21:51 43.34102 -71.63945 10986 ft 368 kts 74°
2026-05-06 21:52 43.34820 -71.60586 10979 ft 369 kts 74°
2026-05-06 21:52 43.35548 -71.57195 10968 ft 370 kts 74°
2026-05-06 21:52 43.36281 -71.53788 10963 ft 373 kts 74°
2026-05-06 21:52 43.37023 -71.50382 10961 ft 373 kts 74°
2026-05-06 21:53 43.37761 -71.46994 10965 ft 374 kts 74°
2026-05-06 21:53 43.38517 -71.43538 10960 ft 374 kts 74°
2026-05-06 21:53 43.39262 -71.40144 10960 ft 374 kts 74°
2026-05-06 21:53 43.40015 -71.36707 10964 ft 375 kts 73°
2026-05-06 21:54 43.40758 -71.33297 10968 ft 373 kts 73°
2026-05-06 21:54 43.41512 -71.29857 10957 ft 375 kts 74°
2026-05-06 21:54 43.42264 -71.26407 10959 ft 375 kts 73°
2026-05-06 21:54 43.43008 -71.22978 10977 ft 374 kts 73°
2026-05-06 21:55 43.43760 -71.19549 10984 ft 372 kts 74°
2026-05-06 21:55 43.44500 -71.16178 10985 ft 375 kts 74°
2026-05-06 21:55 43.45269 -71.12761 10980 ft 373 kts 72°
2026-05-06 21:55 43.46138 -71.09416 10978 ft 372 kts 70°
2026-05-06 21:56 43.47060 -71.06071 10973 ft 372 kts 69°
2026-05-06 21:56 43.47693 -71.03822 10974 ft 373 kts 69°
2026-05-06 21:56 43.48623 -71.00540 10973 ft 374 kts 69°
2026-05-06 21:56 43.49572 -70.97216 10974 ft 371 kts 69°
2026-05-06 21:57 43.50519 -70.93907 10989 ft 373 kts 68°
2026-05-06 21:57 43.51474 -70.90572 10985 ft 373 kts 69°
2026-05-06 21:57 43.52432 -70.87243 10981 ft 372 kts 69°
2026-05-06 21:57 43.53388 -70.83907 10983 ft 373 kts 69°
2026-05-06 21:58 43.54345 -70.80576 10987 ft 374 kts 69°
2026-05-06 21:58 43.55299 -70.77252 10991 ft 373 kts 69°
2026-05-06 21:58 43.56245 -70.73942 10979 ft 362 kts 68°
2026-05-06 21:58 43.57122 -70.70850 10750 ft 342 kts 69°
2026-05-06 21:59 43.57982 -70.67812 10312 ft 330 kts 69°
2026-05-06 21:59 43.58795 -70.64948 9885 ft 320 kts 69°
2026-05-06 21:59 43.59636 -70.62157 9419 ft 311 kts 60°
2026-05-06 21:59 43.60966 -70.59852 8724 ft 309 kts 43°
2026-05-06 22:00 43.62528 -70.57770 7955 ft 312 kts 40°
2026-05-06 22:00 43.64125 -70.55734 7202 ft 314 kts 40°
2026-05-06 22:00 43.65742 -70.53709 6465 ft 314 kts 39°
2026-05-06 22:00 43.67343 -70.51698 5742 ft 315 kts 44°
2026-05-06 22:01 43.68393 -70.49070 4767 ft 324 kts 94°
2026-05-06 22:01 43.67814 -70.46221 1026 ft 369 kts 127°
2026-05-06 22:01 43.66326 -70.43149 913 ft 280 kts 127°
2026-05-06 22:01 43.65670 -70.41582 1249 ft 145 kts 100°
2026-05-06 22:02 43.65855 -70.40215 693 ft 157 kts 96°
2026-05-06 22:02 43.65452 -70.39059 668 ft 114 kts 127°
2026-05-06 22:02 43.65180 -70.37848 355 ft 143 kts 101°
2026-05-06 22:02 43.65027 -70.36531 389 ft 136 kts 113°
2026-05-06 22:03 43.64822 -70.35257 368 ft 139 kts 101°
2026-05-06 22:03 43.64688 -70.33909 321 ft 143 kts 98°
2026-05-06 22:03 43.64590 -70.32564 132 ft 140 kts 97°
2026-05-06 22:03 43.64517 -70.31584 75 ft 52 kts 97°
2026-05-06 22:04 43.64499 -70.31313 71 ft 22 kts 95°
2026-05-06 22:04 43.64498 -70.31142 63 ft 9 kts 54°
2026-05-06 22:04 43.64590 -70.31107 60 ft 5 kts 324°
2026-05-06 22:04 43.64602 -70.31102 58 ft 7 kts 52°
2026-05-06 22:05 43.64605 -70.31053 56 ft 3 kts 69°
2026-05-06 22:05 43.64645 -70.31031 58 ft 9 kts
2026-05-06 22:05 43.64670 -70.31028 57 ft 0 kts
2026-05-06 22:06 43.64678 -70.31028 57 ft 0 kts
2026-05-06 22:06 43.64676 -70.31028 57 ft 0 kts
2026-05-06 22:06 43.64671 -70.31029 57 ft 1 kts
2026-05-06 22:06 43.64664 -70.31029 57 ft 0 kts